Terminal Aerodrome Forecast
Issued by NWS

Home | Current Version | Previous Version | Text Only | Print | Product List | Glossary On
Versions: 1 2 3 4 5 6 7 8 9 10 11 12 13 14 15 16
000
FTUS44 KBMX 251100
TAFMGM
TAF
KMGM 251120Z 2512/2612 20006KT P6SM SCT250
     FM251800 21010G18KT P6SM SCT040 BKN120
     FM260300 24006KT P6SM OVC100
     FM260600 28008KT P6SM OVC050=

USA.gov is the U.S. government's official web portal to all federal, state and local government web resources and services.